Back to catalog

STARLINK-38314

AliveCommunicationsSSO
NORAD 100388·PAYLOAD·🇺🇸 United States

Launched Aug 19, 2026 from Vandenberg Space Force Base

Loading…

Next Passes (next 24 hours)

TLE

FreshSource: Space-Track

Epoch: Sep 14, 2026, 22:15 UTC

1 A0388U 26190T   26257.92732413 -.00543889  00000-0 -56389-2 0  9992
2 A0388  97.2827 111.9362 0001843 346.8661  13.2551 15.66260514  5490

Track STARLINK-38314 in real time with AllMySat

Download on the App Store